Soldotna, AK

8:19 AM AKDT on April 30, 2017 (GMT -0800)
Soldotna

Weather History for PASX - September, 2013

Change the Weather History Date:

Friday, September 20, 2013

  Actual Average Record
Temperature  
Mean Temperature 35 °F -  
Max Temperature 46 °F 53 °F 61 °F (1974)
Min Temperature 24 °F 38 °F 24 °F (2013)
Degree Days  
Heating Degree Days 30    
Moisture  
Dew Point 23 °F    
Average Humidity 64    
Maximum Humidity 86    
Minimum Humidity 34    
Precipitation  
Precipitation 0.00 in - - ()
Sea Level Pressure  
Sea Level Pressure 29.28 in    
Wind  
Wind Speed 2 mph (ENE)    
Max Wind Speed 8 mph    
Max Gust Speed -    
Visibility 10 miles    
Events      
Averages and records for this station are not official NWS values.
T = Trace of Precipitation, MM = Missing Value Source: NWS Daily Summary

Daily Weather History Graph

Daily Weather History Graph

Search for Another Location

Airport or City:

Trip Planner

Search our weather history database for the weather conditions in past years. The results will help you decide how hot, cold, wet, or windy it might be!

Date:

Astronomy

Sep. 20, 2013 Rise Set
Actual Time 7:44 AM AKDT 8:08 PM AKDT
Civil Twilight 7:02 AM AKDT 8:50 PM AKDT
Nautical Twilight 6:10 AM AKDT 9:42 PM AKDT
Astronomical Twilight 5:13 AM AKDT 10:38 PM AKDT
Moon 8:08 PM AKDT (9/20) 9:44 AM AKDT (9/20)
Length of Visible Light 13h 48m
Length of Day
12h 24m
Full, 98% of the Moon is Illuminated
Sep 20
Full
Sep 26
Last Quarter
Oct 4
New
Oct 11
First Quarter
Oct 18
Full

Hourly Weather History & Observations

Time (AKDT) Temp. Windchill Dew Point Humidity Pressure Visibility Wind Dir Wind Speed Gust Speed Precip Events Conditions
12:16 AM 28.4 °F - 23.0 °F 80% 29.42 in 10.0 mi Calm Calm - N/A   Clear
12:36 AM 28.4 °F - 24.8 °F 86% 29.41 in 10.0 mi Calm Calm - N/A   Clear
12:56 AM 28.4 °F - 23.0 °F 80% 29.41 in 10.0 mi Calm Calm - N/A   Clear
1:16 AM 28.4 °F - 23.0 °F 80% 29.41 in 10.0 mi Calm Calm - N/A   Clear
1:36 AM 28.4 °F - 23.0 °F 80% 29.40 in 10.0 mi Calm Calm - N/A   Clear
1:56 AM 26.6 °F - 21.2 °F 80% 29.41 in 10.0 mi Calm Calm - N/A   Clear
2:16 AM 26.6 °F - 23.0 °F 86% 29.41 in 10.0 mi Calm Calm - N/A   Clear
2:36 AM 26.6 °F - 23.0 °F 86% 29.40 in 10.0 mi Calm Calm - N/A   Clear
2:56 AM 26.6 °F - 21.2 °F 80% 29.40 in 10.0 mi Calm Calm - N/A   Clear
3:16 AM 26.6 °F - 21.2 °F 80% 29.40 in 10.0 mi Calm Calm - N/A   Clear
3:36 AM 26.6 °F - 23.0 °F 86% 29.40 in 10.0 mi Calm Calm - N/A   Clear
3:56 AM 26.6 °F - 23.0 °F 86% 29.40 in 10.0 mi Calm Calm - N/A   Clear
4:16 AM 26.6 °F - 21.2 °F 80% 29.40 in 10.0 mi Calm Calm - N/A   Scattered Clouds
4:36 AM 26.6 °F - 23.0 °F 86% 29.40 in 10.0 mi Calm Calm - N/A   Scattered Clouds
4:56 AM 24.8 °F 20.5 °F 21.2 °F 86% 29.40 in 10.0 mi ENE 3.5 mph - N/A   Clear
5:16 AM 26.6 °F 20.0 °F 23.0 °F 86% 29.39 in 10.0 mi ENE 5.8 mph - N/A   Scattered Clouds
5:36 AM 26.6 °F 21.2 °F 21.2 °F 80% 29.39 in 10.0 mi East 4.6 mph - N/A   Partly Cloudy
5:56 AM 24.8 °F 19.1 °F 21.2 °F 86% 29.39 in 10.0 mi East 4.6 mph - N/A   Clear
6:16 AM 26.6 °F 21.2 °F 23.0 °F 86% 29.39 in 10.0 mi East 4.6 mph - N/A   Clear
6:36 AM 26.6 °F 20.0 °F 23.0 °F 86% 29.38 in 10.0 mi East 5.8 mph - N/A   Clear
6:56 AM 26.6 °F - 23.0 °F 86% 29.39 in 10.0 mi Calm Calm - N/A   Clear
7:16 AM 26.6 °F - 23.0 °F 86% 29.38 in 10.0 mi Calm Calm - N/A   Clear
7:36 AM 24.8 °F 20.5 °F 21.2 °F 86% 29.38 in 10.0 mi East 3.5 mph - N/A   Clear
7:56 AM 26.6 °F 21.2 °F 23.0 °F 86% 29.39 in 10.0 mi ENE 4.6 mph - N/A   Clear
8:16 AM 26.6 °F - 21.2 °F 80% 29.38 in 10.0 mi Calm Calm - N/A   Clear
8:36 AM 26.6 °F - 21.2 °F 80% 29.38 in 10.0 mi Calm Calm - N/A   Clear
8:56 AM 26.6 °F 22.6 °F 21.2 °F 80% 29.38 in 10.0 mi East 3.5 mph - N/A   Clear
9:16 AM 28.4 °F - 24.8 °F 86% 29.38 in 10.0 mi Calm Calm - N/A   Clear
9:36 AM 30.2 °F 26.7 °F 24.8 °F 80% 29.38 in 10.0 mi East 3.5 mph - N/A   Clear
9:56 AM 32.0 °F - 24.8 °F 75% 29.38 in 10.0 mi Calm Calm - N/A   Clear
10:16 AM 35.6 °F 32.8 °F 26.6 °F 70% 29.38 in 10.0 mi East 3.5 mph - N/A   Clear
10:36 AM 37.4 °F 32.1 °F 24.8 °F 60% 29.37 in 10.0 mi East 6.9 mph - N/A   Clear
10:56 AM 37.4 °F 32.1 °F 24.8 °F 60% 29.36 in 10.0 mi East 6.9 mph - N/A   Clear
11:16 AM 39.2 °F 33.6 °F 24.8 °F 56% 29.36 in 10.0 mi East 8.1 mph - N/A   Clear
11:36 AM 39.2 °F 33.6 °F 24.8 °F 56% 29.35 in 10.0 mi ENE 8.1 mph - N/A   Clear
11:56 AM 39.2 °F 35.0 °F 24.8 °F 56% 29.34 in 10.0 mi ENE 5.8 mph - N/A   Clear
12:16 PM 41.0 °F 36.4 °F 24.8 °F 53% 29.34 in 10.0 mi NE 6.9 mph - N/A   Clear
12:36 PM 42.8 °F 38.6 °F 23.0 °F 46% 29.33 in 10.0 mi NNE 6.9 mph - N/A   Clear
12:56 PM 42.8 °F 40.1 °F 23.0 °F 46% 29.32 in 10.0 mi NE 4.6 mph - N/A   Clear
1:16 PM 42.8 °F 41.1 °F 21.2 °F 42% 29.31 in 10.0 mi NE 3.5 mph - N/A   Clear
1:36 PM 44.6 °F - 21.2 °F 39% 29.30 in 10.0 mi Calm Calm - N/A   Clear
1:56 PM 44.6 °F 41.4 °F 21.2 °F 39% 29.30 in 10.0 mi NNW 5.8 mph - N/A   Clear
2:16 PM 44.6 °F - 23.0 °F 43% 29.29 in 10.0 mi Calm Calm - N/A   Clear
2:36 PM 44.6 °F 43.1 °F 23.0 °F 43% 29.28 in 10.0 mi North 3.5 mph - N/A   Clear
2:56 PM 44.6 °F 42.2 °F 21.2 °F 39% 29.27 in 10.0 mi East 4.6 mph - N/A   Clear
3:16 PM 44.6 °F 40.2 °F 21.2 °F 39% 29.26 in 10.0 mi NNE 8.1 mph - N/A   Clear
3:36 PM 46.4 °F - 21.2 °F 37% 29.25 in 10.0 mi Calm Calm - N/A   Clear
3:56 PM 46.4 °F - 19.4 °F 34% 29.24 in 10.0 mi Calm Calm - N/A   Clear
4:16 PM 46.4 °F 44.3 °F 21.2 °F 37% 29.22 in 10.0 mi North 4.6 mph - N/A   Clear
4:36 PM 46.4 °F 45.2 °F 21.2 °F 37% 29.21 in 10.0 mi NNW 3.5 mph - N/A   Clear
4:56 PM 46.4 °F 44.3 °F 21.2 °F 37% 29.20 in 10.0 mi ENE 4.6 mph - N/A   Clear
5:16 PM 46.4 °F 43.5 °F 21.2 °F 37% 29.18 in 10.0 mi NE 5.8 mph - N/A   Clear
5:36 PM 46.4 °F 43.5 °F 23.0 °F 40% 29.17 in 10.0 mi NNE 5.8 mph - N/A   Clear
5:56 PM 46.4 °F 42.4 °F 21.2 °F 37% 29.16 in 10.0 mi NE 8.1 mph - N/A   Clear
6:16 PM 46.4 °F 44.3 °F 21.2 °F 37% 29.15 in 10.0 mi NE 4.6 mph - N/A   Clear
6:36 PM 46.4 °F 43.5 °F 21.2 °F 37% 29.15 in 10.0 mi NNE 5.8 mph - N/A   Clear
6:56 PM 46.4 °F 44.3 °F 23.0 °F 40% 29.13 in 10.0 mi NE 4.6 mph - N/A   Clear
7:16 PM 44.6 °F 42.2 °F 21.2 °F 39% 29.13 in 10.0 mi NE 4.6 mph - N/A   Clear
7:36 PM 44.6 °F 43.1 °F 21.2 °F 39% 29.12 in 10.0 mi NNE 3.5 mph - N/A   Clear
7:56 PM 42.8 °F 41.1 °F 23.0 °F 46% 29.11 in 10.0 mi NNE 3.5 mph - N/A   Clear
8:16 PM 41.0 °F - 23.0 °F 49% 29.10 in 10.0 mi Calm Calm - N/A   Clear
8:36 PM 39.2 °F - 24.8 °F 56% 29.10 in 10.0 mi Calm Calm - N/A   Clear
8:56 PM 37.4 °F - 23.0 °F 56% 29.09 in 10.0 mi Calm Calm - N/A   Clear
9:16 PM 33.8 °F - 21.2 °F 60% 29.08 in 10.0 mi Calm Calm - N/A   Clear
9:36 PM 32.0 °F - 23.0 °F 69% 29.08 in 10.0 mi Calm Calm - N/A   Clear
9:56 PM 33.8 °F - 26.6 °F 75% 29.06 in 10.0 mi Calm Calm - N/A   Clear
10:16 PM 30.2 °F - 23.0 °F 75% 29.05 in 10.0 mi Calm Calm - N/A   Clear
10:36 PM 30.2 °F - 23.0 °F 75% 29.05 in 10.0 mi Calm Calm - N/A   Clear
10:56 PM 30.2 °F - 21.2 °F 69% 29.04 in 10.0 mi Calm Calm - N/A   Clear
11:16 PM 30.2 °F - 23.0 °F 75% 29.03 in 10.0 mi Calm Calm - N/A   Clear
11:36 PM 28.4 °F 24.6 °F 21.2 °F 74% 29.03 in 10.0 mi ENE 3.5 mph - N/A   Clear
11:56 PM 30.2 °F - 24.8 °F 80% 29.02 in 10.0 mi Calm Calm - N/A   Clear